KA-Sat

operational
NORAD ID: 37258 Int'l Des: 2010-069 Owner: EUTSA Country: F
HEOCIRCULARGSOGEO
追跡 地上

KA-Satについて

説明を読み込み中...

リアルタイム位置

3D地球を読み込み中...

次回通過

高度履歴

Altitude vs Time

uPlot chart will show altitude changes over time

軌道要素

1 37258U 10069A 26072.57189223 .00000061 00000-0 00000-0 0 9992
2 37258 0.0564 357.2424 0002701 146.9091 241.9141 1.00272917 43041
Epoch: Mar 13, 2026 • Age: 39 hours

現在のステータス

高度 35787.1 km
速度 3.07 km/s
衛星直下点 0.01°N, 8.97°E
打ち上げ日 Dec 26, 2010
運用期間 15.2 years
タイプ other

技術仕様

分類 Payload
質量 5800.00 kg
乾燥質量 3000.00 kg
総質量 5800.00 kg
長さ 4.50 m
直径 2.40 m
スパン 39.40 m
形状 Box + 2 Pan + Dish
製造者 EADSB
バスタイプ Eurostar 3000
フェーズステータス Renamed
所有者/国 EUTSA/F

大規模コンステレーション

Loading constellations...